SCP
0 0 0 0 0 0 0 0 0 0 0 0 0 0 0 0 0 0 0 0 0 0 0 0 0 0 0 0 0 0 0 0 0 0 0 0 0 0 0 0 0 0 0 0 0
0 0 0 0 0 0 0 0 0 0 0 0 0 0 0 0 0 0 0 0 0 0 0 0 0 0 0 0 0 -0 0 0 0 0 0 0 0 0 0 0 0 0 0 0 0
0 0 0 0 0 0 0 0 0 0 0 0 0 0 0 0 -0 0 -0 0 0 0 0 0 0 0 0 0 0 0 0 0 0 0 0 0 0 0 0 0 0 0 0 0 0
0 0 0 -0 -0 0 0 0 0 0 0 0 0 0 0 0 -0 0 0 0 0 0 0 0 0 0 0 0 0 0 -0 0 0 0 0 0 0 0 0 0 0 0 0 0 0
0 0 -0 -0 0 0 0 0 0 0 0 0 0 0 0 0 -0 0 0 0 0 0 0 0 0 0 0 0 0 0 0 0 0 0 0 0 0 0 0 0 0 0 0 0 0
0 0 -0 -0 -0 -0 0 0 0 0 0 0 0 -0 -0 0 -0 0 0 0 0 0 0 0 0 0 0 0 0 -0 0 0 0 0 0 0 0 0 0 0 0 0 0 0 0
0 -0 -0 -0 -0 0 0 0 0 0 0 0 0 0 -0 0 -0 -0 0 0 0 0 0 0 0 0 0 0 0 0 -0 -0 0 0 0 0 0 0 0 0 0 0 0 0 0
-0 -0 -0 -0 -0 0 0 0 0 0 0 0 0 0 0 0 0 -0 0 0 0 0 0 0 0 0 0 0 0 0 0 -0 -0 0 0 0 0 0 0 0 0 0 0 0 0
-0 -0 -0 -0 -0 0 0 0 0 0 0 -0 -0 -0 0 -0 -0 -0 -0 0 0 0 0 0 0 0 0 0 0 0 0 0 -0 -0 0 0 0 0 0 0 0 0 0 0 0
-0 -0 -0 -0 -0 0 0 0 0 0 0 0 -0 0 -0 0 0 -0 0 0 0 0 0 0 0 0 0 0 0 0 0 0 0 0 0 -0 0 0 0 0 0 0 0 0 0
-0 -0 -0 -0 -0 0 0 0 0 0 0 -0 -0 -0 -0 -0 -0 0 0 0 0 0 0 0 0 0 0 0 0 0 0 0 0 0 0 0 0 0 0 0 0 0 0 0 0
-0 -0 -0 -0 -0 0 0 0 0 0 0 0 0 0 0 -0 -0 -0 0 0 0 0 0 0 0 0 0 0 0 0 0 0 0 0 0 0 0 0 0 0 0 0 0 0 0
-0 -0 -0 -0 0 0 0 0 0 0 0 -0 -0 0 -0 -0 -0 -0 0 0 0 0 0 0 0 0 0 0 0 0 0 0 0 0 0 0 0 0 0 0 0 0 0 0 0
-0 -0 -0 -0 0 0 0 0 0 0 0 0 0 -0 0 -0 -0 -0 0 0 0 0 0 0 0 0 0 0 0 0 0 0 0 0 0 0 0 0 0 0 0 0 0 0 0
-0 -0 -0 0 0 0 0 0 0 0 0 0 0 -0 0 -0 -0 -0 0 0 0 0 0 0 0 0 0 0 0 0 0 0 0 0 0 0 0 0 0 0 0 0 0 0 0
-0 -0 -0 0 0 0 0 0 0 0 0 -0 0 0 0 -0 -0 -0 -0 -0 0 0 0 0 0 0 0 0 0 0 0 0 0 0 0 0 0 0 0 0 0 0 0 0 0
-0 0 0 0 0 0 0 0 0 0 0 0 0 0 0 0 -0 -0 -0 -0 0 0 0 0 0 0 0 0 0 0 0 0 0 0 0 0 0 0 0 0 0 0 0 0 0
-0 -0 0 0 0 0 0 0 0 0 0 0 0 0 0 0 -0 0 -0 -0 -0 0 0 0 0 0 0 0 0 0 0 0 0 0 0 0 0 0 0 0 0 0 0 0 0
-0 0 0 0 0 0 0 0 0 0 0 0 -0 -0 0 0 0 0 0 0 -0 -0 0 0 0 0 0 0 0 0 0 0 0 0 0 0 0 0 0 0 0 0 0 0 0
-0 0 0 -0 0 0 0 0 0 0 0 0 0 -0 -0 0 0 0 0 0 0 0 0 0 0 0 0 0 0 0 0 0 0 0 0 0 0 0 0 0 0 0 0 0 0
0 0 0 -0 0 0 0 0 0 0 0 0 0 0 -0 0 0 0 0 0 0 0 0 0 0 0 0 0 0 0 0 0 0 0 0 0 0 0 0 0 0 0 0 0 0
0 0 0 -0 0 0 0 0 0 0 0 0 0 -0 -0 -0 0 0 0 0 0 0 0 0 0 0 0 0 0 0 0 0 0 0 0 0 0 0 0 0 0 0 0 0 0
0 0 0 0 0 0 0 0 0 0 0 0 0 0 -0 -0 -0 0 0 0 0 0 0 0 0 0 0 0 0 0 0 0 0 0 0 0 0 0 0 0 0 0 0 0 0
0 0 0 0 0 0 0 0 0 0 0 0 0 0 -0 -0 -0 0 0 0 0 0 0 0 0 0 0 0 0 0 0 0 0 0 0 0 0 0 0 0 0 0 0 0 0
0 0 0 0 0 0 0 0 0 0 0 0 0 0 0 0 0 -0 0 0 0 0 0 0 0 0 0 0 0 0 0 0 0 0 0 0 0 0 0 0 0 0 0 0 0
0 0 0 0 0 0 0 0 0 0 0 0 0 0 0 0 0 0 -0 0 0 0 0 0 0 0 0 0 0 0 0 0 0 0 0 0 0 0 0 0 0 0 0 0 0
0 0 0 0 0 0 0 0 0 0 0 0 0 0 0 0 0 -0 -0 -0 -0 0 0 0 0 0 0 0 0 0 0 0 0 0 0 0 0 0 0 0 0 0 0 0 0
Wind_Speed_500mb
25 25 27 29 32 35 38 40 42 44 45 44 45 48 50 49 55 53 60 55 47 45 39 30 22 17 33 23 46 18 9 23 37 30 23 7 13 3 5 13 17 16 3 13 46
27 26 28 31 34 38 41 42 43 45 47 43 46 47 51 54 53 65 59 58 53 39 49 30 29 21 15 18 23 27 7 25 21 15 12 4 14 11 13 23 21 18 10 33 37
26 27 30 35 37 40 41 43 47 47 48 47 45 45 46 48 55 69 51 52 60 59 55 42 31 36 41 19 21 22 28 39 25 13 23 27 14 12 20 25 26 29 28 38 47
26 28 31 36 38 41 44 45 50 53 51 53 47 46 42 38 21 4 23 23 54 46 47 45 42 44 32 28 32 14 45 62 69 49 40 29 26 18 25 10 1 16 42 41 53
26 28 33 36 40 43 48 49 54 59 59 57 51 46 40 29 59 53 44 24 13 29 58 53 53 49 37 35 38 36 27 54 64 60 59 47 33 32 22 24 3 17 38 42 46
27 29 34 36 41 46 50 53 56 58 59 59 52 40 37 36 42 41 49 48 30 31 59 59 39 56 43 32 42 39 45 33 25 46 49 43 39 10 21 23 21 23 33 37 41
24 28 33 36 42 48 54 58 56 56 58 47 38 30 36 51 37 26 28 54 31 23 60 63 45 44 49 35 32 40 37 31 34 48 28 38 47 42 38 9 22 27 29 35 40
23 28 33 37 44 51 56 54 52 56 42 21 35 23 23 23 29 26 25 32 28 20 47 48 54 24 38 20 31 31 24 34 33 31 18 31 37 36 40 33 29 24 31 35 40
25 28 34 39 47 53 54 55 48 39 30 35 21 12 15 21 20 30 42 36 28 25 42 31 35 37 35 26 26 29 32 38 29 47 22 28 26 43 26 37 38 31 29 33 33
25 28 33 39 46 48 56 56 42 20 36 19 13 20 6 42 47 45 24 35 23 37 38 31 29 27 26 29 39 43 42 33 38 24 34 46 37 35 14 26 37 39 35 31 34
25 28 31 37 41 42 56 49 38 9 30 19 41 31 35 36 32 40 12 24 32 39 24 42 28 40 49 48 35 34 32 40 25 20 21 38 41 38 26 22 41 38 36 36 36
26 27 30 34 35 36 37 25 17 21 25 20 32 30 23 22 22 29 18 2 29 37 29 29 41 37 29 35 36 36 32 32 6 13 13 24 35 37 31 43 36 31 36 38 34
26 27 29 30 24 35 24 33 31 20 12 23 17 23 30 23 12 20 17 21 11 30 33 36 10 26 30 32 36 33 30 29 33 12 15 14 31 33 39 53 50 51 46 34 32
26 26 28 27 15 30 14 42 34 10 6 27 23 15 35 26 6 25 6 14 7 20 22 14 11 27 25 33 30 34 26 19 13 18 15 19 17 31 37 39 37 50 47 47 44
24 24 24 21 22 16 35 43 27 2 10 35 17 20 38 14 15 13 19 11 8 9 14 8 12 23 33 35 31 22 16 10 4 16 15 16 12 27 8 31 35 31 42 45 47
21 20 19 20 20 29 37 38 6 5 10 20 19 30 39 18 12 3 6 14 12 10 10 4 5 8 10 7 17 24 24 10 7 3 14 30 22 21 21 18 20 20 30 30 38
15 14 16 19 22 28 36 10 4 9 17 19 20 29 26 22 15 13 8 8 7 8 7 3 11 3 13 17 14 20 23 9 9 7 18 5 25 29 13 6 5 5 11 17 19
12 13 16 20 24 31 25 4 12 1 8 18 24 27 17 29 18 20 10 6 6 3 5 15 10 20 20 22 13 25 33 9 24 21 18 18 17 9 19 13 8 14 14 19 22
12 14 13 18 21 25 10 9 5 2 12 19 24 11 16 27 20 18 13 22 8 5 11 9 6 17 7 3 22 25 18 4 5 3 5 17 22 18 21 16 15 17 13 21 27
11 12 10 16 22 15 6 8 3 3 14 15 13 15 18 27 23 22 24 20 18 11 17 1 1 8 5 8 17 14 12 9 6 11 13 19 26 14 8 15 11 3 9 7 9
9 8 9 15 15 9 6 5 1 5 8 9 9 10 13 17 14 16 20 11 25 19 24 6 6 6 4 5 19 17 17 14 7 10 15 18 12 7 6 6 6 9 9 12 13
6 1 12 11 5 6 4 2 3 3 1 4 5 7 12 17 10 14 15 17 30 21 14 14 1 0 2 3 11 10 20 26 7 15 16 18 16 5 4 7 12 16 9 8 10
5 3 9 7 1 4 5 3 3 4 3 1 4 7 10 10 8 12 12 10 30 18 12 12 2 4 9 7 10 9 12 17 24 2 13 10 9 7 3 3 9 14 12 6 3
3 1 6 10 5 2 5 3 3 6 6 3 3 6 11 5 2 8 16 12 24 18 14 14 5 8 7 6 7 7 18 30 29 11 13 32 24 8 2 4 3 3 6 6 6
7 3 4 4 3 6 1 3 1 5 6 4 3 7 3 5 13 5 10 20 16 12 20 7 6 11 18 17 15 14 18 18 32 38 23 36 28 26 25 10 3 6 5 7 7
9 8 7 7 9 7 4 10 11 6 7 4 7 4 5 4 6 14 16 10 8 14 18 8 7 8 7 12 13 19 19 26 32 36 36 43 45 30 25 24 21 23 18 20 15
25 13 6 14 10 8 6 10 16 12 10 8 8 7 14 16 18 18 19 26 30 26 13 7 6 7 6 6 11 13 25 32 31 30 35 37 47 26 28 18 26 26 22 15 13
Wind_Direction_500mb
346 351 353 353 351 347 343 341 338 331 323 307 303 298 301 301 291 279 265 261 262 245 254 265 267 239 235 220 220 278 259 232 232 218 246 88 231 203 187 168 186 187 91 110 170
332 339 339 341 342 342 337 334 334 331 328 317 305 299 293 307 298 278 266 257 255 257 249 262 242 211 194 206 189 196 278 248 248 280 244 113 267 163 196 194 191 175 127 148 172
323 330 333 333 331 330 329 327 326 326 325 318 307 298 297 307 299 282 269 252 247 253 256 239 242 220 209 184 176 177 217 264 285 314 332 309 274 245 229 202 206 201 171 168 171
321 324 329 332 327 324 325 325 325 321 323 316 312 299 293 301 265 264 202 201 227 232 224 225 230 225 215 188 192 191 205 224 260 273 303 297 306 260 245 219 208 207 181 181 181
321 325 325 329 327 324 325 321 318 318 316 311 308 302 297 277 259 271 266 256 257 233 216 214 217 218 217 205 189 212 201 218 230 255 264 283 273 267 261 247 213 167 180 184 184
320 323 323 327 327 326 325 324 320 318 311 304 303 298 288 269 272 270 255 263 282 244 213 205 214 213 219 227 207 206 217 213 228 258 256 266 261 238 251 240 217 177 181 184 189
329 325 325 331 331 330 329 325 325 316 307 304 299 285 270 265 277 266 272 225 265 229 206 205 204 205 222 220 222 242 206 212 205 222 246 262 258 242 246 202 211 204 193 191 194
329 327 329 334 332 333 330 331 332 321 315 300 322 276 266 280 259 300 285 249 238 233 197 202 207 238 224 215 186 201 220 209 213 211 234 203 254 230 231 223 227 212 205 199 199
326 326 331 332 336 336 336 335 335 325 335 296 312 281 267 312 322 308 303 242 222 201 183 184 194 213 202 207 194 200 224 222 204 189 199 208 251 254 261 218 234 219 214 207 203
328 326 332 335 338 339 338 342 355 356 350 8 21 316 250 321 326 310 293 187 179 159 169 191 193 199 205 204 204 200 216 224 219 188 207 222 238 250 214 218 228 230 216 210 208
330 331 333 338 341 343 345 3 9 352 4 357 314 300 293 313 333 333 132 181 167 167 169 185 190 200 197 211 224 214 218 228 229 154 204 226 236 236 232 232 235 228 220 213 213
332 333 334 339 342 347 355 39 15 321 307 334 355 348 323 344 357 5 358 187 174 173 162 165 209 203 216 222 229 233 240 227 95 110 207 233 237 247 232 236 232 224 221 217 216
330 334 337 342 342 348 359 9 353 342 286 321 359 353 4 351 35 11 336 351 195 176 175 186 176 201 211 215 219 220 224 222 232 156 220 265 253 250 246 246 246 244 242 226 215
326 332 338 350 5 342 335 340 346 343 297 6 3 19 343 335 59 24 275 15 340 195 187 215 100 186 200 209 205 207 217 265 224 188 221 191 258 224 230 232 231 233 229 234 232
321 330 338 352 341 347 329 335 343 41 345 334 349 338 349 21 318 40 74 50 27 296 177 99 177 196 198 200 203 220 162 162 254 253 301 193 240 252 260 230 230 233 229 229 229
321 328 336 350 345 335 334 335 42 272 357 340 330 337 348 24 1 78 80 61 33 4 287 340 322 190 167 173 195 128 114 101 69 4 256 240 223 243 214 222 235 214 232 231 231
335 337 341 349 339 342 343 0 338 39 348 336 329 331 332 9 21 343 38 51 52 344 157 12 130 111 147 118 178 182 167 169 185 227 236 323 243 241 267 7 281 176 195 227 235
342 344 347 349 351 350 360 357 55 66 308 312 324 321 22 16 360 13 340 103 67 354 282 179 197 188 183 216 180 196 191 195 210 218 241 215 244 231 265 291 256 244 237 233 228
339 340 341 345 352 353 356 53 40 29 313 328 328 7 359 12 347 6 26 359 55 318 16 335 102 180 215 197 183 193 223 286 83 24 221 209 252 274 252 238 236 250 246 264 254
333 331 317 343 350 17 60 91 111 285 316 323 359 3 2 354 15 5 13 20 357 347 314 41 121 9 345 237 221 231 164 188 222 194 223 239 238 263 216 239 159 308 278 289 290
326 302 311 343 360 53 68 79 287 238 298 333 349 327 340 2 349 352 18 73 17 344 321 293 287 39 172 228 193 206 225 229 278 260 246 258 247 25 305 39 351 347 307 308 302
291 343 329 343 23 41 90 110 304 338 269 297 281 329 332 332 341 2 8 10 359 1 341 9 343 157 112 249 288 323 229 229 221 234 251 271 270 55 79 21 355 339 329 283 271
264 284 347 44 122 111 123 156 233 242 270 51 297 357 325 321 335 13 342 340 9 14 13 349 249 174 156 172 183 217 209 213 225 81 230 216 248 30 78 354 346 333 349 353 320
214 170 21 58 65 96 142 118 173 240 271 267 312 283 320 334 286 317 336 348 354 9 332 336 293 309 322 34 353 198 216 204 207 222 221 227 242 200 137 297 353 331 325 342 323
199 158 148 144 162 106 105 135 187 226 234 244 208 226 350 326 332 9 356 337 341 8 357 22 314 2 328 299 288 271 258 238 223 238 248 259 261 258 274 210 224 349 358 343 313
189 155 130 126 126 165 213 193 206 211 203 219 239 217 281 268 321 304 321 336 311 341 341 14 315 325 271 277 314 287 271 247 249 255 254 264 268 263 278 297 262 282 289 289 288
201 177 169 166 181 190 218 192 211 196 219 242 224 259 287 298 312 288 275 274 273 291 310 296 316 313 273 14 323 283 242 230 239 241 244 256 261 268 271 258 280 275 265 263 245
Wind_Speed_850mb
25 25 27 29 32 35 38 40 42 44 45 44 45 48 50 49 55 53 60 55 47 45 39 30 22 17 33 23 46 18 9 23 37 30 23 7 13 3 5 13 17 16 3 13 46
27 26 28 31 34 38 41 42 43 45 47 43 46 47 51 54 53 65 59 58 53 39 49 30 29 21 15 18 23 27 7 25 21 15 12 4 14 11 13 23 21 18 10 33 37
26 27 30 35 37 40 41 43 47 47 48 47 45 45 46 48 55 69 51 52 60 59 55 42 31 36 41 19 21 22 28 39 25 13 23 27 14 12 20 25 26 29 28 38 47
26 28 31 36 38 41 44 45 50 53 51 53 47 46 42 38 21 4 23 23 54 46 47 45 42 44 32 28 32 14 45 62 69 49 40 29 26 18 25 10 1 16 42 41 53
26 28 33 36 40 43 48 49 54 59 59 57 51 46 40 29 59 53 44 24 13 29 58 53 53 49 37 35 38 36 27 54 64 60 59 47 33 32 22 24 3 17 38 42 46
27 29 34 36 41 46 50 53 56 58 59 59 52 40 37 36 42 41 49 48 30 31 59 59 39 56 43 32 42 39 45 33 25 46 49 43 39 10 21 23 21 23 33 37 41
24 28 33 36 42 48 54 58 56 56 58 47 38 30 36 51 37 26 28 54 31 23 60 63 45 44 49 35 32 40 37 31 34 48 28 38 47 42 38 9 22 27 29 35 40
23 28 33 37 44 51 56 54 52 56 42 21 35 23 23 23 29 26 25 32 28 20 47 48 54 24 38 20 31 31 24 34 33 31 18 31 37 36 40 33 29 24 31 35 40
25 28 34 39 47 53 54 55 48 39 30 35 21 12 15 21 20 30 42 36 28 25 42 31 35 37 35 26 26 29 32 38 29 47 22 28 26 43 26 37 38 31 29 33 33
25 28 33 39 46 48 56 56 42 20 36 19 13 20 6 42 47 45 24 35 23 37 38 31 29 27 26 29 39 43 42 33 38 24 34 46 37 35 14 26 37 39 35 31 34
25 28 31 37 41 42 56 49 38 9 30 19 41 31 35 36 32 40 12 24 32 39 24 42 28 40 49 48 35 34 32 40 25 20 21 38 41 38 26 22 41 38 36 36 36
26 27 30 34 35 36 37 25 17 21 25 20 32 30 23 22 22 29 18 2 29 37 29 29 41 37 29 35 36 36 32 32 6 13 13 24 35 37 31 43 36 31 36 38 34
26 27 29 30 24 35 24 33 31 20 12 23 17 23 30 23 12 20 17 21 11 30 33 36 10 26 30 32 36 33 30 29 33 12 15 14 31 33 39 53 50 51 46 34 32
26 26 28 27 15 30 14 42 34 10 6 27 23 15 35 26 6 25 6 14 7 20 22 14 11 27 25 33 30 34 26 19 13 18 15 19 17 31 37 39 37 50 47 47 44
24 24 24 21 22 16 35 43 27 2 10 35 17 20 38 14 15 13 19 11 8 9 14 8 12 23 33 35 31 22 16 10 4 16 15 16 12 27 8 31 35 31 42 45 47
21 20 19 20 20 29 37 38 6 5 10 20 19 30 39 18 12 3 6 14 12 10 10 4 5 8 10 7 17 24 24 10 7 3 14 30 22 21 21 18 20 20 30 30 38
15 14 16 19 22 28 36 10 4 9 17 19 20 29 26 22 15 13 8 8 7 8 7 3 11 3 13 17 14 20 23 9 9 7 18 5 25 29 13 6 5 5 11 17 19
12 13 16 20 24 31 25 4 12 1 8 18 24 27 17 29 18 20 10 6 6 3 5 15 10 20 20 22 13 25 33 9 24 21 18 18 17 9 19 13 8 14 14 19 22
12 14 13 18 21 25 10 9 5 2 12 19 24 11 16 27 20 18 13 22 8 5 11 9 6 17 7 3 22 25 18 4 5 3 5 17 22 18 21 16 15 17 13 21 27
11 12 10 16 22 15 6 8 3 3 14 15 13 15 18 27 23 22 24 20 18 11 17 1 1 8 5 8 17 14 12 9 6 11 13 19 26 14 8 15 11 3 9 7 9
9 8 9 15 15 9 6 5 1 5 8 9 9 10 13 17 14 16 20 11 25 19 24 6 6 6 4 5 19 17 17 14 7 10 15 18 12 7 6 6 6 9 9 12 13
6 1 12 11 5 6 4 2 3 3 1 4 5 7 12 17 10 14 15 17 30 21 14 14 1 0 2 3 11 10 20 26 7 15 16 18 16 5 4 7 12 16 9 8 10
5 3 9 7 1 4 5 3 3 4 3 1 4 7 10 10 8 12 12 10 30 18 12 12 2 4 9 7 10 9 12 17 24 2 13 10 9 7 3 3 9 14 12 6 3
3 1 6 10 5 2 5 3 3 6 6 3 3 6 11 5 2 8 16 12 24 18 14 14 5 8 7 6 7 7 18 30 29 11 13 32 24 8 2 4 3 3 6 6 6
7 3 4 4 3 6 1 3 1 5 6 4 3 7 3 5 13 5 10 20 16 12 20 7 6 11 18 17 15 14 18 18 32 38 23 36 28 26 25 10 3 6 5 7 7
9 8 7 7 9 7 4 10 11 6 7 4 7 4 5 4 6 14 16 10 8 14 18 8 7 8 7 12 13 19 19 26 32 36 36 43 45 30 25 24 21 23 18 20 15
25 13 6 14 10 8 6 10 16 12 10 8 8 7 14 16 18 18 19 26 30 26 13 7 6 7 6 6 11 13 25 32 31 30 35 37 47 26 28 18 26 26 22 15 13
Wind_Direction_850mb
346 351 353 353 351 347 343 341 338 331 323 307 303 298 301 301 291 279 265 261 262 245 254 265 267 239 235 220 220 278 259 232 232 218 246 88 231 203 187 168 186 187 91 110 170
332 339 339 341 342 342 337 334 334 331 328 317 305 299 293 307 298 278 266 257 255 257 249 262 242 211 194 206 189 196 278 248 248 280 244 113 267 163 196 194 191 175 127 148 172
323 330 333 333 331 330 329 327 326 326 325 318 307 298 297 307 299 282 269 252 247 253 256 239 242 220 209 184 176 177 217 264 285 314 332 309 274 245 229 202 206 201 171 168 171
321 324 329 332 327 324 325 325 325 321 323 316 312 299 293 301 265 264 202 201 227 232 224 225 230 225 215 188 192 191 205 224 260 273 303 297 306 260 245 219 208 207 181 181 181
321 325 325 329 327 324 325 321 318 318 316 311 308 302 297 277 259 271 266 256 257 233 216 214 217 218 217 205 189 212 201 218 230 255 264 283 273 267 261 247 213 167 180 184 184
320 323 323 327 327 326 325 324 320 318 311 304 303 298 288 269 272 270 255 263 282 244 213 205 214 213 219 227 207 206 217 213 228 258 256 266 261 238 251 240 217 177 181 184 189
329 325 325 331 331 330 329 325 325 316 307 304 299 285 270 265 277 266 272 225 265 229 206 205 204 205 222 220 222 242 206 212 205 222 246 262 258 242 246 202 211 204 193 191 194
329 327 329 334 332 333 330 331 332 321 315 300 322 276 266 280 259 300 285 249 238 233 197 202 207 238 224 215 186 201 220 209 213 211 234 203 254 230 231 223 227 212 205 199 199
326 326 331 332 336 336 336 335 335 325 335 296 312 281 267 312 322 308 303 242 222 201 183 184 194 213 202 207 194 200 224 222 204 189 199 208 251 254 261 218 234 219 214 207 203
328 326 332 335 338 339 338 342 355 356 350 8 21 316 250 321 326 310 293 187 179 159 169 191 193 199 205 204 204 200 216 224 219 188 207 222 238 250 214 218 228 230 216 210 208
330 331 333 338 341 343 345 3 9 352 4 357 314 300 293 313 333 333 132 181 167 167 169 185 190 200 197 211 224 214 218 228 229 154 204 226 236 236 232 232 235 228 220 213 213
332 333 334 339 342 347 355 39 15 321 307 334 355 348 323 344 357 5 358 187 174 173 162 165 209 203 216 222 229 233 240 227 95 110 207 233 237 247 232 236 232 224 221 217 216
330 334 337 342 342 348 359 9 353 342 286 321 359 353 4 351 35 11 336 351 195 176 175 186 176 201 211 215 219 220 224 222 232 156 220 265 253 250 246 246 246 244 242 226 215
326 332 338 350 5 342 335 340 346 343 297 6 3 19 343 335 59 24 275 15 340 195 187 215 100 186 200 209 205 207 217 265 224 188 221 191 258 224 230 232 231 233 229 234 232
321 330 338 352 341 347 329 335 343 41 345 334 349 338 349 21 318 40 74 50 27 296 177 99 177 196 198 200 203 220 162 162 254 253 301 193 240 252 260 230 230 233 229 229 229
321 328 336 350 345 335 334 335 42 272 357 340 330 337 348 24 1 78 80 61 33 4 287 340 322 190 167 173 195 128 114 101 69 4 256 240 223 243 214 222 235 214 232 231 231
335 337 341 349 339 342 343 0 338 39 348 336 329 331 332 9 21 343 38 51 52 344 157 12 130 111 147 118 178 182 167 169 185 227 236 323 243 241 267 7 281 176 195 227 235
342 344 347 349 351 350 360 357 55 66 308 312 324 321 22 16 360 13 340 103 67 354 282 179 197 188 183 216 180 196 191 195 210 218 241 215 244 231 265 291 256 244 237 233 228
339 340 341 345 352 353 356 53 40 29 313 328 328 7 359 12 347 6 26 359 55 318 16 335 102 180 215 197 183 193 223 286 83 24 221 209 252 274 252 238 236 250 246 264 254
333 331 317 343 350 17 60 91 111 285 316 323 359 3 2 354 15 5 13 20 357 347 314 41 121 9 345 237 221 231 164 188 222 194 223 239 238 263 216 239 159 308 278 289 290
326 302 311 343 360 53 68 79 287 238 298 333 349 327 340 2 349 352 18 73 17 344 321 293 287 39 172 228 193 206 225 229 278 260 246 258 247 25 305 39 351 347 307 308 302
291 343 329 343 23 41 90 110 304 338 269 297 281 329 332 332 341 2 8 10 359 1 341 9 343 157 112 249 288 323 229 229 221 234 251 271 270 55 79 21 355 339 329 283 271
264 284 347 44 122 111 123 156 233 242 270 51 297 357 325 321 335 13 342 340 9 14 13 349 249 174 156 172 183 217 209 213 225 81 230 216 248 30 78 354 346 333 349 353 320
214 170 21 58 65 96 142 118 173 240 271 267 312 283 320 334 286 317 336 348 354 9 332 336 293 309 322 34 353 198 216 204 207 222 221 227 242 200 137 297 353 331 325 342 323
199 158 148 144 162 106 105 135 187 226 234 244 208 226 350 326 332 9 356 337 341 8 357 22 314 2 328 299 288 271 258 238 223 238 248 259 261 258 274 210 224 349 358 343 313
189 155 130 126 126 165 213 193 206 211 203 219 239 217 281 268 321 304 321 336 311 341 341 14 315 325 271 277 314 287 271 247 249 255 254 264 268 263 278 297 262 282 289 289 288
201 177 169 166 181 190 218 192 211 196 219 242 224 259 287 298 312 288 275 274 273 291 310 296 316 313 273 14 323 283 242 230 239 241 244 256 261 268 271 258 280 275 265 263 245